Regional Weather Roundup
Issued by NWS Albany, NY

Home | Current Version | Previous Version | Graphics & Text | Print | Product List | Glossary Off
Versions: 1 2 3 4 5 6 7 8 9 10 11 12 13 14 15 16 17 18 19 20 21 22 23 24 25 26 27 28 29 30 31 32 33 34 35 36 37 38 39 40 41 42 43 44 45 46 47 48 49 50

383
ASUS41 KALY 202110
RWRALY

NEW YORK STATE HOURLY WEATHER ROUNDUP
NATIONAL WEATHER SERVICE ALBANY NY
500 PM EDT THU JUL 20 2017

NOTE: "FAIR" INDICATES FEW OR NO CLOUDS BELOW 12,000 FEET WITH NO
SIGNIFICANT WEATHER AND/OR NO OBSTRUCTIONS TO VISIBILITY.

NYZ032-033-038>043-046>054-057>066-NYZ062>081-082-084-202200-
EAST


CITY           SKY/WX    TMP DP  RH WIND       PRES   REMARKS
ALBANY         CLOUDY    80  58  46 W9        29.90F
GLENS FALLS    CLOUDY    79  63  57 SW5       29.84F
POUGHKEEPSIE   SUNNY     90  65  43 SW12      29.85F HX  92
NEWBURGH       MOSUNNY   90  72  55 W9        29.90F HX  96
MONTGOMERY     MOSUNNY   88  68  51 W6        29.86F HX  91
WHITE PLAINS   MOSUNNY   91  64  40 NW8       29.89F HX  93
ISLIP          PTSUNNY   84  74  71 SW9       29.88F HX  91
NEW YORK CITY  CLOUDY    94  72  48 SW10      29.85F HX 102
CENTRAL PARK   CLOUDY    90  67  46 VRB3      29.90F HX  93
$$

NYZ005>009-017-018-044>046-055-056-202200-
CENTRAL


CITY           SKY/WX    TMP DP  RH WIND       PRES   REMARKS
FULTON         MOSUNNY   74  62  66 S8        29.89F
SYRACUSE       CLOUDY    75  60  59 VRB3      29.89F
ROME           CLOUDY    75  62  64 CALM      29.90F
ELMIRA         CLOUDY    70  67  90 CALM      29.96S
BINGHAMTON     LGT RAIN  68  66  93 E8        29.95F FOG
$$

NYZ026>034-041>043-087-202200-
NORTH


CITY           SKY/WX    TMP DP  RH WIND       PRES   REMARKS
WATERTOWN      SUNNY     76  58  53 W5        29.89F
FORT DRUM      NOT AVBL
OGDENSBURG     FAIR      82  63  53 SW7       29.87F
MASSENA        SUNNY     80  67  64 SW10      29.86F
SARANAC LAKE   SUNNY     74  58  57 SW9       29.92S
PLATTSBURGH    CLOUDY    83  55  38 W12G20    29.83F
$$

NYZ001>004-010>016-019>021-085-202200-
WEST


CITY           SKY/WX    TMP DP  RH WIND       PRES   REMARKS
NIAGARA FALLS  PTSUNNY   72  62  71 S7        29.91F
BUFFALO        CLOUDY    71  65  81 S7        29.92F
DUNKIRK        PTSUNNY   78  72  81 SW12      29.93F
JAMESTOWN      MOSUNNY   81  64  57 W13       29.98F
WELLSVILLE     CLOUDY    72  67  84 N5        30.02F
ROCHESTER      CLOUDY    74  65  73 S10       29.91F
PENN YAN       CLOUDY    71  63  75 S6        29.95F
$$

             KEY
       WCI = WIND CHILL INDEX
       VSB = VISIBILITY
       HX  = HEAT INDEX
$$




USA.gov is the U.S. government's official web portal to all federal, state and local government web resources and services.